Flag for Sweden Weather past 2 weeks in Gothenburg, Sweden

Now
41 °F

Partly cloudy.


Feels Like: 33 °F
Forecast: 36 / 47 °F
Wind: 16 mph from Southwest

Location: Gothenburg / Save

Current Time: Dec 20, 2014 at 6:36:27 AM

Latest Report: Dec 20, 2014 at 5:50 AM


Visibility: N/A

Pressure: 29.27 "Hg

Humidity: 81%

Dew point: 36 °F

Location of GothenburgLocation

Historic Weather in Gothenburg — Graph

°F

Gothenburg temperature yesterday

Maximum temperature yesterday: 46 °F (at 12:20 AM)
Minimum temperature yesterday: 41 °F (at 3:20 PM)
Average temperature yesterday: 43 °F

Past Weeks' High & Low Weather Summary

 TemperatureHumidityPressure
High46 °F (Dec 18, 2:20 PM)100% (Dec 5, 3:50 PM)30.07 "Hg (Dec 5, 3:50 PM)
Low27 °F (Dec 6, 7:50 PM)57% (Dec 13, 9:20 PM)28.91 "Hg (Dec 12, 6:50 PM)
Average40 °F86%29.53 "Hg
* Reported Dec 5 5:20 AM — Dec 20 5:20 AM, Gothenburg, Weather by CustomWeather, © 2014

Note: Actual official high and low records may vary slightly from our data, if they occured in-between our weather recording intervals... More about our weather records

Advertising

Gothenburg weather history for previous 24 hours

 ConditionsComfort  
Time TempWeatherWind HumidityBarometerVisibility
5:20 AM
Dec 20
41 °FMostly cloudy.17 mph81%29.27 "HgN/A
4:50 AM41 °FPartly cloudy.15 mph81%29.27 "HgN/A
4:20 AM41 °FMostly cloudy.17 mph81%29.30 "HgN/A
3:50 AM41 °FMostly cloudy.18 mph81%29.30 "HgN/A
3:20 AM41 °FMostly cloudy.15 mph81%29.30 "HgN/A
2:50 AM41 °FMostly cloudy.15 mph81%29.30 "HgN/A
2:20 AM43 °FOvercast.18 mph76%29.30 "Hg4 mi
1:50 AM43 °FPartly cloudy.16 mph76%29.30 "HgN/A
1:20 AM43 °FPassing clouds.14 mph76%29.30 "HgN/A
12:50 AM43 °FClear.14 mph71%29.33 "Hg10 mi
12:20 AM43 °FPassing clouds.13 mph76%29.33 "HgN/A
11:50 PM
Dec 19
43 °FPassing clouds.17 mph76%29.30 "HgN/A
11:20 PM43 °FClear.21 mph71%29.30 "Hg10 mi
10:50 PM43 °FPartly cloudy.21 mph71%29.30 "HgN/A
10:20 PM43 °FPartly cloudy.18 mph76%29.30 "HgN/A
9:50 PM43 °FPassing clouds.16 mph81%29.30 "HgN/A
9:20 PM43 °FMostly cloudy.16 mph81%29.30 "HgN/A
8:50 PM43 °FPassing clouds.16 mph76%29.27 "HgN/A
8:20 PM43 °FMostly cloudy.18 mph76%29.27 "HgN/A
7:50 PM43 °FPassing clouds.18 mph76%29.27 "HgN/A
7:20 PM43 °FPassing clouds.18 mph76%29.27 "HgN/A
6:50 PM41 °FPassing clouds.16 mph81%29.27 "HgN/A
6:20 PM41 °FPartly cloudy.17 mph81%29.27 "HgN/A
5:50 PM41 °FPassing clouds.18 mph81%29.27 "HgN/A
5:20 PM41 °FPassing clouds.13 mph81%29.24 "HgN/A
4:50 PM41 °FPassing clouds.17 mph81%29.24 "HgN/A
4:22 PM41 °FPassing clouds.14 mph76%29.24 "HgN/A
3:50 PM41 °FPassing clouds.15 mph81%29.24 "HgN/A
3:20 PM41 °FRain showers. Partly sunny.24 mph81%29.27 "HgN/A
2:20 PM43 °FScattered showers. Broken clouds.14 mph81%29.24 "HgN/A
1:50 PM43 °FRain showers. Broken clouds.16 mph81%29.27 "HgN/A
1:20 PM45 °FBroken clouds.14 mph81%29.27 "HgN/A
12:50 PM45 °FLight rain. Partly sunny.13 mph81%29.27 "HgN/A
12:20 PM45 °FScattered clouds.12 mph76%29.27 "HgN/A
11:20 AM43 °FScattered clouds.9 mph87%29.30 "HgN/A
10:50 AM43 °FLight rain. Broken clouds.10 mph81%29.30 "HgN/A
10:20 AM43 °FPassing clouds.9 mph81%29.30 "HgN/A
9:20 AM43 °FBroken clouds.14 mph81%29.27 "HgN/A
8:59 AM43 °FBroken clouds.13 mph81%29.27 "HgN/A
8:29 AM45 °FPartly cloudy.14 mph81%29.27 "HgN/A
7:50 AM45 °FPartly cloudy.12 mph87%29.27 "HgN/A
7:20 AM43 °FPassing clouds.10 mph87%29.27 "HgN/A
6:50 AM45 °FPartly cloudy.10 mph81%29.27 "HgN/A
6:20 AM45 °FClear.12 mph81%29.27 "Hg10 mi
Weather by CustomWeather, © 2014

See weather overviewHow to use our weather pages